Time,TemperatureF,DewpointF,PressureIn,WindDirection,WindDirectionDegrees,WindSpeedMPH,WindSpeedGustMPH,Humidity,HourlyPrecipIn,Conditions,Clouds,dailyrainin,SolarRadiationWatts/m^2,SoftwareType,DateUTC
2013-06-23 00:01:00,69.8,66.7,29.82,ENE,61,0.0,1.0,90,0.00,,BKN014,0.00,0.00,VWS V14.01,2013-06-23 05:01:00,
2013-06-23 00:06:00,69.9,66.8,29.82,ENE,61,0.0,1.0,90,0.00,,BKN014,0.00,0.00,VWS V14.01,2013-06-23 05:06:00,
2013-06-23 00:11:00,69.9,66.8,29.82,ENE,61,0.0,1.0,90,0.00,,BKN014,0.00,0.00,VWS V14.01,2013-06-23 05:11:00,
2013-06-23 00:16:00,70.0,66.9,29.82,ENE,61,0.0,1.0,90,0.00,,BKN014,0.00,0.00,VWS V14.01,2013-06-23 05:16:00,
2013-06-23 00:21:00,70.0,66.9,29.82,ENE,61,0.0,1.0,90,0.00,,BKN080,0.00,0.00,VWS V14.01,2013-06-23 05:21:00,
2013-06-23 00:26:00,70.1,67.0,29.82,ENE,69,0.0,1.0,90,0.00,,BKN080,0.00,0.00,VWS V14.01,2013-06-23 05:26:00,
2013-06-23 00:31:00,70.2,67.1,29.82,SSW,194,0.0,1.0,90,0.00,,BKN080,0.00,0.00,VWS V14.01,2013-06-23 05:31:00,
2013-06-23 00:36:00,70.2,67.1,29.81,ESE,116,1.0,3.0,90,0.00,,BKN080,0.00,0.00,VWS V14.01,2013-06-23 05:36:00,
2013-06-23 00:41:00,70.2,67.1,29.81,South,183,0.0,3.0,90,0.00,,BKN080,0.00,0.00,VWS V14.01,2013-06-23 05:41:00,
2013-06-23 00:46:00,70.1,67.0,29.81,South,172,0.0,10.0,90,0.00,,BKN080,0.00,0.00,VWS V14.01,2013-06-23 05:46:00,
2013-06-23 00:51:00,70.1,67.0,29.81,South,172,0.0,10.0,90,0.00,,BKN080,0.00,0.00,VWS V14.01,2013-06-23 05:51:00,
2013-06-23 00:56:00,70.0,66.9,29.80,SSW,198,4.0,10.0,90,0.00,,BKN080,0.00,0.00,VWS V14.01,2013-06-23 05:56:00,
2013-06-23 01:01:00,69.9,66.8,29.81,SSW,209,3.0,3.0,90,0.00,,-RA,0.00,0.00,VWS V14.01,2013-06-23 06:01:00,
2013-06-23 01:06:00,69.7,66.3,29.80,SE,128,2.0,6.0,89,0.00,,-RA,0.00,0.00,VWS V14.01,2013-06-23 06:06:00,
2013-06-23 01:11:00,69.6,65.9,29.80,SE,146,4.0,13.0,88,0.00,,-RA,0.00,0.00,VWS V14.01,2013-06-23 06:11:00,
2013-06-23 01:16:00,69.4,65.4,29.79,SSE,161,2.0,14.0,87,0.00,,-RA,0.00,0.00,VWS V14.01,2013-06-23 06:16:00,
2013-06-23 01:21:00,69.3,64.9,29.79,South,178,0.0,14.0,86,0.00,,-RA,0.00,0.00,VWS V14.01,2013-06-23 06:21:00,
2013-06-23 01:26:00,69.1,64.7,29.78,South,190,0.0,14.0,86,0.00,,-RA,0.00,0.00,VWS V14.01,2013-06-23 06:26:00,
2013-06-23 01:31:00,69.0,64.6,29.78,SSE,166,1.0,3.0,86,0.00,,-RA,0.00,0.00,VWS V14.01,2013-06-23 06:31:00,
2013-06-23 01:36:00,68.8,64.4,29.78,SSE,161,0.0,3.0,86,0.00,,-RA,0.00,0.00,VWS V14.01,2013-06-23 06:36:00,
2013-06-23 01:41:00,68.7,64.3,29.78,SSW,198,2.0,6.0,86,0.00,,-RA,0.00,0.00,VWS V14.01,2013-06-23 06:41:00,
2013-06-23 01:46:00,68.6,64.2,29.78,ESE,117,1.0,7.0,86,0.00,,-RA,0.00,0.00,VWS V14.01,2013-06-23 06:46:00,
2013-06-23 01:51:00,68.5,64.2,29.78,SSE,153,1.0,7.0,86,0.00,,-RA,0.00,0.00,VWS V14.01,2013-06-23 06:51:00,
2013-06-23 01:56:00,68.5,64.2,29.78,SE,134,0.0,7.0,86,0.00,,-RA,0.00,0.00,VWS V14.01,2013-06-23 06:56:00,
2013-06-23 02:01:00,68.4,64.1,29.78,WSW,239,1.0,5.0,86,0.00,,FEW080,0.00,0.00,VWS V14.01,2013-06-23 07:01:00,
2013-06-23 02:06:00,68.3,64.3,29.78,East,84,6.0,6.0,87,0.00,,FEW080,0.00,0.00,VWS V14.01,2013-06-23 07:06:00,
2013-06-23 02:11:00,68.3,64.3,29.78,ESE,116,0.0,6.0,87,0.00,,FEW080,0.00,0.00,VWS V14.01,2013-06-23 07:11:00,
2013-06-23 02:16:00,68.2,64.2,29.78,SE,134,2.0,12.0,87,0.00,,FEW080,0.00,0.00,VWS V14.01,2013-06-23 07:16:00,
2013-06-23 02:21:00,68.2,64.2,29.78,SE,134,0.0,12.0,87,0.00,,FEW080,0.00,0.00,VWS V14.01,2013-06-23 07:21:00,
2013-06-23 02:26:00,68.1,63.8,29.77,SW,223,1.0,12.0,86,0.00,,FEW080,0.00,0.00,VWS V14.01,2013-06-23 07:26:00,
2013-06-23 02:31:00,68.3,64.0,29.78,SE,130,0.0,3.0,86,0.00,,FEW080,0.00,0.00,VWS V14.01,2013-06-23 07:31:00,
2013-06-23 02:36:00,68.3,64.0,29.78,SE,131,3.0,10.0,86,0.00,,FEW080,0.00,0.00,VWS V14.01,2013-06-23 07:36:00,
2013-06-23 02:41:00,68.4,64.4,29.78,ESE,111,3.0,11.0,87,0.00,,FEW080,0.00,0.00,VWS V14.01,2013-06-23 07:41:00,
2013-06-23 02:46:00,68.5,64.5,29.79,South,173,4.0,11.0,87,0.00,,FEW080,0.00,0.00,VWS V14.01,2013-06-23 07:46:00,
2013-06-23 02:51:00,68.7,65.0,29.80,SE,131,6.0,11.0,88,0.00,,FEW080,0.00,0.00,VWS V14.01,2013-06-23 07:51:00,
2013-06-23 02:56:00,68.8,65.1,29.79,SSW,200,2.0,11.0,88,0.00,,FEW080,0.00,0.00,VWS V14.01,2013-06-23 07:56:00,
2013-06-23 03:01:00,69.0,65.3,29.79,SSE,160,1.0,17.0,88,0.00,,CLR,0.00,0.00,VWS V14.01,2013-06-23 08:01:00,
2013-06-23 03:06:00,69.0,65.3,29.78,South,190,4.0,17.0,88,0.00,,CLR,0.00,0.00,VWS V14.01,2013-06-23 08:06:00,
2013-06-23 03:11:00,69.0,65.3,29.78,South,178,2.0,17.0,88,0.00,,CLR,0.00,0.00,VWS V14.01,2013-06-23 08:11:00,
2013-06-23 03:16:00,68.9,65.2,29.78,South,190,4.0,18.0,88,0.00,,CLR,0.00,0.00,VWS V14.01,2013-06-23 08:16:00,
2013-06-23 03:21:00,68.8,65.4,29.78,SSW,200,9.0,18.0,89,0.00,,CLR,0.00,0.00,VWS V14.01,2013-06-23 08:21:00,
2013-06-23 03:26:00,68.7,65.3,29.78,South,184,9.0,18.0,89,0.00,,CLR,0.00,0.00,VWS V14.01,2013-06-23 08:26:00,
2013-06-23 03:31:00,68.6,65.2,29.78,SSE,162,4.0,14.0,89,0.00,,CLR,0.00,0.00,VWS V14.01,2013-06-23 08:31:00,
2013-06-23 03:36:00,68.6,65.2,29.78,SSW,195,3.0,14.0,89,0.00,,CLR,0.00,0.00,VWS V14.01,2013-06-23 08:36:00,
2013-06-23 03:41:00,68.5,65.1,29.78,SSW,192,7.0,14.0,89,0.00,,CLR,0.00,0.00,VWS V14.01,2013-06-23 08:41:00,
2013-06-23 03:46:00,68.4,65.0,29.77,South,170,2.0,14.0,89,0.00,,CLR,0.00,0.00,VWS V14.01,2013-06-23 08:46:00,
2013-06-23 03:51:00,68.3,64.9,29.76,ESE,120,0.0,14.0,89,0.00,,CLR,0.00,0.00,VWS V14.01,2013-06-23 08:51:00,
2013-06-23 03:56:00,68.3,64.9,29.76,South,174,0.0,14.0,89,0.00,,CLR,0.00,0.00,VWS V14.01,2013-06-23 08:56:00,
2013-06-23 04:01:00,68.3,64.9,29.76,SSE,166,4.0,8.0,89,0.00,,BKN065,0.00,0.00,VWS V14.01,2013-06-23 09:01:00,
2013-06-23 04:06:00,68.3,64.9,29.76,South,183,0.0,8.0,89,0.00,,BKN065,0.00,0.00,VWS V14.01,2013-06-23 09:06:00,
2013-06-23 04:11:00,68.3,64.9,29.76,South,173,1.0,8.0,89,0.00,,BKN065,0.00,0.00,VWS V14.01,2013-06-23 09:11:00,
2013-06-23 04:16:00,68.3,64.9,29.75,SE,130,0.0,8.0,89,0.00,,BKN065,0.00,0.00,VWS V14.01,2013-06-23 09:16:00,
2013-06-23 04:21:00,68.3,64.9,29.75,SE,138,0.0,8.0,89,0.00,,BKN065,0.00,0.00,VWS V14.01,2013-06-23 09:21:00,
2013-06-23 04:26:00,68.4,65.0,29.74,ESE,109,0.0,8.0,89,0.00,,BKN065,0.00,0.00,VWS V14.01,2013-06-23 09:26:00,
2013-06-23 04:31:00,68.4,65.0,29.74,ESE,112,0.0,1.0,89,0.00,,BKN065,0.00,0.00,VWS V14.01,2013-06-23 09:31:00,
2013-06-23 04:36:00,68.5,64.8,29.74,East,97,1.0,1.0,88,0.00,,BKN065,0.00,0.00,VWS V14.01,2013-06-23 09:36:00,
2013-06-23 04:41:00,68.5,64.8,29.74,East,97,0.0,1.0,88,0.00,,BKN065,0.00,0.00,VWS V14.01,2013-06-23 09:41:00,
2013-06-23 04:46:00,68.4,65.0,29.74,East,98,0.0,1.0,89,0.00,,BKN065,0.00,0.00,VWS V14.01,2013-06-23 09:46:00,
2013-06-23 04:51:00,68.3,64.6,29.75,East,98,1.0,1.0,88,0.00,,BKN065,0.00,0.00,VWS V14.01,2013-06-23 09:51:00,
2013-06-23 04:56:00,68.3,64.6,29.75,ESE,123,1.0,2.0,88,0.00,,BKN065,0.00,0.00,VWS V14.01,2013-06-23 09:56:00,
2013-06-23 05:01:00,68.2,64.5,29.75,ESE,123,0.0,2.0,88,0.00,,CLR,0.00,0.00,VWS V14.01,2013-06-23 10:01:00,
2013-06-23 05:06:00,68.1,64.4,29.74,ESE,123,0.0,2.0,88,0.00,,CLR,0.00,0.00,VWS V14.01,2013-06-23 10:06:00,
2013-06-23 05:11:00,68.1,64.4,29.74,ESE,123,0.0,2.0,88,0.00,,CLR,0.00,0.00,VWS V14.01,2013-06-23 10:11:00,
2013-06-23 05:16:00,68.0,64.3,29.74,ESE,123,0.0,2.0,88,0.00,,CLR,0.00,0.00,VWS V14.01,2013-06-23 10:16:00,
2013-06-23 05:21:00,67.9,64.2,29.74,ESE,123,0.0,2.0,88,0.00,,CLR,0.00,0.00,VWS V14.01,2013-06-23 10:21:00,
2013-06-23 05:26:00,67.9,64.2,29.74,ESE,123,0.0,2.0,88,0.00,,CLR,0.00,0.00,VWS V14.01,2013-06-23 10:26:00,
2013-06-23 05:31:00,67.7,64.0,29.74,ESE,123,0.0,0.0,88,0.00,,CLR,0.00,0.00,VWS V14.01,2013-06-23 10:31:00,
2013-06-23 05:36:00,67.6,64.2,29.74,ESE,123,0.0,0.0,89,0.00,,CLR,0.00,5.00,VWS V14.01,2013-06-23 10:36:00,
2013-06-23 05:41:00,67.5,64.2,29.74,ESE,123,0.0,1.0,89,0.00,,CLR,0.00,7.00,VWS V14.01,2013-06-23 10:41:00,
2013-06-23 05:46:00,67.3,64.0,29.73,ESE,123,0.0,1.0,89,0.00,,CLR,0.00,9.00,VWS V14.01,2013-06-23 10:46:00,
2013-06-23 05:51:00,67.1,63.8,29.73,ESE,123,0.0,2.0,89,0.00,,CLR,0.00,12.00,VWS V14.01,2013-06-23 10:51:00,
2013-06-23 05:56:00,67.0,63.7,29.73,ESE,123,0.0,2.0,89,0.00,,CLR,0.00,18.00,VWS V14.01,2013-06-23 10:56:00,
2013-06-23 06:01:00,67.0,64.0,29.73,ESE,123,0.0,1.0,90,0.00,,,0.00,25.00,VWS V14.01,2013-06-23 11:01:00,
2013-06-23 06:06:00,66.9,63.9,29.73,ESE,123,0.0,1.0,90,0.00,,,0.00,28.00,VWS V14.01,2013-06-23 11:06:00,
2013-06-23 06:11:00,66.8,63.8,29.72,ESE,123,0.0,2.0,90,0.00,,,0.00,28.00,VWS V14.01,2013-06-23 11:11:00,
2013-06-23 06:16:00,66.7,63.7,29.72,ESE,113,0.0,3.0,90,0.00,,,0.00,32.00,VWS V14.01,2013-06-23 11:16:00,
2013-06-23 06:21:00,66.6,63.6,29.73,ESE,113,0.0,3.0,90,0.00,,,0.00,37.00,VWS V14.01,2013-06-23 11:21:00,
2013-06-23 06:26:00,66.6,63.6,29.75,South,182,2.0,3.0,90,0.00,,,0.00,42.00,VWS V14.01,2013-06-23 11:26:00,
2013-06-23 06:31:00,66.6,63.6,29.76,South,182,2.0,2.0,90,0.00,,,0.00,51.00,VWS V14.01,2013-06-23 11:31:00,
2013-06-23 06:36:00,66.7,63.7,29.76,SSW,195,0.0,4.0,90,0.00,,,0.00,62.00,VWS V14.01,2013-06-23 11:36:00,
2013-06-23 06:41:00,66.8,63.8,29.76,SSW,195,0.0,4.0,90,0.00,,,0.00,76.00,VWS V14.01,2013-06-23 11:41:00,
2013-06-23 06:47:00,67.0,64.0,29.76,SSE,162,2.0,8.0,90,0.00,,,0.00,91.00,VWS V14.01,2013-06-23 11:47:00,
2013-06-23 06:52:00,67.5,64.2,29.77,South,184,5.0,8.0,89,0.00,,,0.00,102.00,VWS V14.01,2013-06-23 11:52:00,
2013-06-23 06:56:00,67.9,64.2,29.77,SSW,195,11.0,11.0,88,0.00,,,0.00,118.00,VWS V14.01,2013-06-23 11:56:00,
2013-06-23 07:02:00,68.3,64.6,29.77,SSW,205,5.0,12.0,88,0.00,,,0.00,127.00,VWS V14.01,2013-06-23 12:02:00,
2013-06-23 07:07:00,68.6,64.6,29.77,NE,56,1.0,13.0,87,0.00,,,0.00,113.00,VWS V14.01,2013-06-23 12:07:00,
2013-06-23 07:11:00,68.8,64.8,29.77,South,175,0.0,13.0,87,0.00,,,0.00,98.00,VWS V14.01,2013-06-23 12:11:00,
2013-06-23 07:17:00,68.9,64.6,29.77,South,184,1.0,13.0,86,0.00,,,0.00,98.00,VWS V14.01,2013-06-23 12:17:00,
2013-06-23 07:22:00,69.0,64.6,29.77,South,184,10.0,13.0,86,0.00,,,0.00,97.00,VWS V14.01,2013-06-23 12:22:00,
2013-06-23 07:27:00,69.2,64.8,29.77,SSW,198,2.0,14.0,86,0.00,,,0.00,88.00,VWS V14.01,2013-06-23 12:27:00,
2013-06-23 07:32:00,69.3,64.9,29.77,SSW,207,3.0,3.0,86,0.00,,,0.00,137.00,VWS V14.01,2013-06-23 12:32:00,
2013-06-23 07:37:00,69.4,64.7,29.76,SSE,148,2.0,3.0,85,0.00,,,0.00,142.00,VWS V14.01,2013-06-23 12:37:00,
2013-06-23 07:42:00,69.5,64.8,29.76,East,88,3.0,4.0,85,0.00,,,0.00,105.00,VWS V14.01,2013-06-23 12:42:00,
2013-06-23 07:47:00,69.6,64.9,29.76,South,190,6.0,6.0,85,0.00,,,0.00,97.00,VWS V14.01,2013-06-23 12:47:00,
2013-06-23 07:52:00,69.7,64.7,29.76,South,190,2.0,7.0,84,0.00,,,0.00,153.00,VWS V14.01,2013-06-23 12:52:00,
2013-06-23 07:57:00,69.9,64.8,29.76,SSE,147,0.0,7.0,84,0.00,,,0.00,95.00,VWS V14.01,2013-06-23 12:57:00,
2013-06-23 08:02:00,70.1,65.1,29.76,South,181,0.0,8.0,84,0.00,,,0.00,93.00,VWS V14.01,2013-06-23 13:02:00,
2013-06-23 08:07:00,70.2,65.1,29.76,South,182,0.0,8.0,84,0.00,,,0.00,160.00,VWS V14.01,2013-06-23 13:07:00,
2013-06-23 08:12:00,70.4,65.0,29.76,South,172,0.0,8.0,83,0.00,,,0.00,104.00,VWS V14.01,2013-06-23 13:12:00,
2013-06-23 08:17:00,70.4,65.0,29.76,SSE,152,0.0,8.0,83,0.00,,,0.00,158.00,VWS V14.01,2013-06-23 13:17:00,
2013-06-23 08:22:00,70.6,65.2,29.75,SE,146,1.0,8.0,83,0.00,,,0.00,153.00,VWS V14.01,2013-06-23 13:22:00,
2013-06-23 08:27:00,70.9,65.5,29.75,SSW,205,0.0,8.0,83,0.00,,,0.00,197.00,VWS V14.01,2013-06-23 13:27:00,
2013-06-23 08:32:00,71.2,65.8,29.75,South,175,0.0,5.0,83,0.00,,,0.00,127.00,VWS V14.01,2013-06-23 13:32:00,
2013-06-23 08:37:00,71.3,65.5,29.74,SW,227,0.0,5.0,82,0.00,,,0.00,134.00,VWS V14.01,2013-06-23 13:37:00,
2013-06-23 08:42:00,71.6,65.8,29.74,SSE,161,1.0,5.0,82,0.00,,,0.00,128.00,VWS V14.01,2013-06-23 13:42:00,
2013-06-23 08:47:00,72.0,65.9,29.74,SSW,207,0.0,5.0,81,0.00,,,0.00,153.00,VWS V14.01,2013-06-23 13:47:00,
2013-06-23 08:52:00,72.5,66.7,29.74,South,188,0.0,5.0,82,0.00,,,0.00,151.00,VWS V14.01,2013-06-23 13:52:00,
2013-06-23 08:57:00,73.0,66.8,29.74,South,191,0.0,6.0,81,0.00,,,0.00,160.00,VWS V14.01,2013-06-23 13:57:00,
2013-06-23 09:02:00,73.5,67.0,29.73,SSE,163,0.0,6.0,80,0.00,,,0.00,387.00,VWS V14.01,2013-06-23 14:02:00,
2013-06-23 09:07:00,74.1,67.5,29.73,South,169,2.0,8.0,80,0.00,,,0.00,517.00,VWS V14.01,2013-06-23 14:07:00,
2013-06-23 09:12:00,74.8,67.5,29.73,SE,126,1.0,8.0,78,0.00,,,0.00,571.00,VWS V14.01,2013-06-23 14:12:00,
2013-06-23 09:17:00,75.5,67.8,29.72,SE,130,1.0,15.0,77,0.00,,,0.00,531.00,VWS V14.01,2013-06-23 14:17:00,
2013-06-23 09:22:00,75.9,68.2,29.72,SSW,208,2.0,17.0,77,0.00,,,0.00,438.00,VWS V14.01,2013-06-23 14:22:00,
2013-06-23 09:27:00,76.2,68.5,29.72,SSE,165,2.0,17.0,77,0.00,,,0.00,555.00,VWS V14.01,2013-06-23 14:27:00,
2013-06-23 09:32:00,76.5,68.8,29.71,SSE,162,3.0,8.0,77,0.00,,,0.00,548.00,VWS V14.01,2013-06-23 14:32:00,
2013-06-23 09:37:00,76.7,68.9,29.70,ESE,113,1.0,14.0,77,0.00,,,0.00,591.00,VWS V14.01,2013-06-23 14:37:00,
2013-06-23 09:42:00,77.0,68.9,29.70,SE,135,5.0,14.0,76,0.00,,,0.00,643.00,VWS V14.01,2013-06-23 14:42:00,
2013-06-23 09:47:00,77.3,69.2,29.70,SSW,212,5.0,14.0,76,0.00,,,0.00,693.00,VWS V14.01,2013-06-23 14:47:00,
2013-06-23 09:52:00,77.8,70.0,29.70,SSW,198,8.0,14.0,77,0.00,,,0.00,756.00,VWS V14.01,2013-06-23 14:52:00,
2013-06-23 09:57:00,78.1,69.9,29.70,SSE,151,4.0,19.0,76,0.00,,,0.00,649.00,VWS V14.01,2013-06-23 14:57:00,
2013-06-23 10:02:00,77.9,69.3,29.71,South,171,6.0,16.0,75,0.00,,,0.00,295.00,VWS V14.01,2013-06-23 15:02:00,
2013-06-23 10:07:00,77.4,69.2,29.71,SSE,165,5.0,23.0,76,0.00,,,0.00,329.00,VWS V14.01,2013-06-23 15:07:00,
2013-06-23 10:12:00,77.3,69.9,29.71,ESE,109,3.0,25.0,78,0.00,,,0.00,410.00,VWS V14.01,2013-06-23 15:12:00,
2013-06-23 10:17:00,77.2,69.4,29.70,SSE,167,0.0,25.0,77,0.00,,,0.00,376.00,VWS V14.01,2013-06-23 15:17:00,
2013-06-23 10:22:00,77.1,69.7,29.71,ESE,115,5.0,25.0,78,0.00,,CLR,0.00,517.00,VWS V14.01,2013-06-23 15:22:00,
2013-06-23 10:27:00,76.9,69.5,29.71,SSE,164,8.0,26.0,78,0.00,,CLR,0.00,408.00,VWS V14.01,2013-06-23 15:27:00,
2013-06-23 10:32:00,76.9,69.9,29.71,South,175,15.0,18.0,79,0.00,,CLR,0.00,355.00,VWS V14.01,2013-06-23 15:32:00,
2013-06-23 10:37:00,76.7,69.7,29.70,SE,141,6.0,20.0,79,0.00,,CLR,0.00,336.00,VWS V14.01,2013-06-23 15:37:00,
2013-06-23 10:42:00,76.7,69.7,29.70,South,191,7.0,20.0,79,0.00,,CLR,0.00,287.00,VWS V14.01,2013-06-23 15:42:00,
2013-06-23 10:47:00,76.6,69.6,29.70,SSW,207,4.0,20.0,79,0.00,,CLR,0.00,297.00,VWS V14.01,2013-06-23 15:47:00,
2013-06-23 10:52:00,76.4,69.4,29.70,SE,142,5.0,22.0,79,0.00,,CLR,0.00,269.00,VWS V14.01,2013-06-23 15:52:00,
2013-06-23 10:58:00,76.2,69.6,29.69,SE,136,1.0,22.0,80,0.00,,CLR,0.00,241.00,VWS V14.01,2013-06-23 15:58:00,
2013-06-23 11:03:00,76.1,69.5,29.69,ESE,117,3.0,12.0,80,0.00,,CLR,0.00,221.00,VWS V14.01,2013-06-23 16:03:00,
2013-06-23 11:08:00,76.0,69.4,29.69,SSE,148,1.0,16.0,80,0.00,,CLR,0.00,197.00,VWS V14.01,2013-06-23 16:08:00,
2013-06-23 11:13:00,76.0,69.4,29.69,SSE,149,6.0,20.0,80,0.00,,CLR,0.00,183.00,VWS V14.01,2013-06-23 16:13:00,
2013-06-23 11:18:00,75.9,69.7,29.69,ESE,115,2.0,20.0,81,0.00,,CLR,0.00,158.00,VWS V14.01,2013-06-23 16:18:00,
2013-06-23 11:23:00,75.8,69.6,29.69,SE,128,3.0,22.0,81,0.00,,CLR,0.00,202.00,VWS V14.01,2013-06-23 16:23:00,
2013-06-23 11:28:00,75.9,69.7,29.68,ESE,118,0.0,22.0,81,0.00,,CLR,0.00,265.00,VWS V14.01,2013-06-23 16:28:00,
2013-06-23 11:33:00,76.0,69.8,29.68,ESE,113,0.0,13.0,81,0.00,,CLR,0.00,230.00,VWS V14.01,2013-06-23 16:33:00,
2013-06-23 11:38:00,76.1,69.8,29.68,SE,142,1.0,13.0,81,0.00,,CLR,0.00,243.00,VWS V14.01,2013-06-23 16:38:00,
2013-06-23 11:43:00,76.2,69.9,29.68,SSE,155,2.0,13.0,81,0.00,,CLR,0.00,325.00,VWS V14.01,2013-06-23 16:43:00,
2013-06-23 11:48:00,76.5,70.2,29.69,SSE,156,5.0,13.0,81,0.00,,CLR,0.00,348.00,VWS V14.01,2013-06-23 16:48:00,
2013-06-23 11:53:00,76.7,70.1,29.69,South,190,2.0,13.0,80,0.00,,CLR,0.00,376.00,VWS V14.01,2013-06-23 16:53:00,
2013-06-23 11:57:00,77.0,70.4,29.69,SE,126,6.0,13.0,80,0.00,,CLR,0.00,418.00,VWS V14.01,2013-06-23 16:57:00,
2013-06-23 12:03:00,77.3,70.3,29.69,South,170,0.0,8.0,79,0.00,,CLR,0.00,394.00,VWS V14.01,2013-06-23 17:03:00,
2013-06-23 12:08:00,77.4,70.8,29.70,SSE,160,6.0,10.0,80,0.00,,CLR,0.00,383.00,VWS V14.01,2013-06-23 17:08:00,
2013-06-23 12:13:00,77.5,70.5,29.70,SE,124,3.0,11.0,79,0.00,,CLR,0.00,371.00,VWS V14.01,2013-06-23 17:13:00,
2013-06-23 12:18:00,77.5,70.8,29.70,South,171,2.0,11.0,80,0.00,,CLR,0.00,469.00,VWS V14.01,2013-06-23 17:18:00,
2013-06-23 12:23:00,77.6,70.6,29.71,SE,130,1.0,11.0,79,0.00,,CLR,0.00,276.00,VWS V14.01,2013-06-23 17:23:00,
2013-06-23 12:28:00,77.6,70.9,29.71,SSE,155,3.0,12.0,80,0.00,,CLR,0.00,225.00,VWS V14.01,2013-06-23 17:28:00,
2013-06-23 12:33:00,77.5,70.5,29.71,SE,142,3.0,15.0,79,0.00,,CLR,0.00,248.00,VWS V14.01,2013-06-23 17:33:00,
2013-06-23 12:38:00,77.5,70.1,29.71,South,176,2.0,19.0,78,0.00,,CLR,0.00,248.00,VWS V14.01,2013-06-23 17:38:00,
2013-06-23 12:43:00,77.5,70.1,29.71,SSE,155,6.0,19.0,78,0.00,,CLR,0.00,318.00,VWS V14.01,2013-06-23 17:43:00,
2013-06-23 12:48:00,77.6,69.4,29.71,SE,132,4.0,19.0,76,0.00,,CLR,0.00,540.00,VWS V14.01,2013-06-23 17:48:00,
2013-06-23 12:53:00,78.0,70.2,29.71,SSE,149,3.0,19.0,77,0.00,,CLR,0.00,657.00,VWS V14.01,2013-06-23 17:53:00,
2013-06-23 12:58:00,78.4,69.4,29.71,SE,146,3.0,19.0,74,0.00,,CLR,0.00,722.00,VWS V14.01,2013-06-23 17:58:00,
2013-06-23 13:03:00,78.5,69.9,29.71,South,180,2.0,14.0,75,0.00,,CLR,0.00,617.00,VWS V14.01,2013-06-23 18:03:00,
2013-06-23 13:08:00,78.7,70.1,29.71,SSW,192,6.0,14.0,75,0.00,,CLR,0.00,635.00,VWS V14.01,2013-06-23 18:08:00,
2013-06-23 13:13:00,78.9,69.9,29.71,South,170,2.0,18.0,74,0.00,,CLR,0.00,536.00,VWS V14.01,2013-06-23 18:13:00,
2013-06-23 13:18:00,79.0,70.0,29.71,SSW,200,4.0,18.0,74,0.00,,CLR,0.00,570.00,VWS V14.01,2013-06-23 18:18:00,
2013-06-23 13:23:00,79.0,69.6,29.71,South,183,16.0,18.0,73,0.00,,CLR,0.00,652.00,VWS V14.01,2013-06-23 18:23:00,
2013-06-23 13:28:00,79.2,69.0,29.71,SSE,150,9.0,18.0,71,0.00,,CLR,0.00,849.00,VWS V14.01,2013-06-23 18:28:00,
2013-06-23 13:33:00,79.6,70.2,29.72,SSW,200,8.0,14.0,73,0.00,,CLR,0.00,875.00,VWS V14.01,2013-06-23 18:33:00,
2013-06-23 13:38:00,80.1,69.9,29.71,SSW,196,13.0,15.0,71,0.00,,CLR,0.00,919.00,VWS V14.01,2013-06-23 18:38:00,
2013-06-23 13:43:00,80.1,69.4,29.71,SSW,205,4.0,18.0,70,0.00,,CLR,0.00,921.00,VWS V14.01,2013-06-23 18:43:00,
2013-06-23 13:48:00,80.1,69.4,29.71,SSW,213,6.0,18.0,70,0.00,,CLR,0.00,914.00,VWS V14.01,2013-06-23 18:48:00,
2013-06-23 13:53:00,80.1,69.0,29.71,SSE,150,1.0,18.0,69,0.00,,CLR,0.00,889.00,VWS V14.01,2013-06-23 18:53:00,
2013-06-23 13:58:00,80.4,70.1,29.71,SSW,199,16.0,18.0,71,0.00,,CLR,0.00,879.00,VWS V14.01,2013-06-23 18:58:00,
2013-06-23 14:03:00,80.4,69.3,29.71,SW,215,12.0,14.0,69,0.00,,CLR,0.00,833.00,VWS V14.01,2013-06-23 19:03:00,
2013-06-23 14:08:00,80.3,68.8,29.71,SE,144,4.0,16.0,68,0.00,,CLR,0.00,902.00,VWS V14.01,2013-06-23 19:08:00,
2013-06-23 14:13:00,80.8,69.7,29.71,SSW,209,8.0,16.0,69,0.00,,CLR,0.00,904.00,VWS V14.01,2013-06-23 19:13:00,
2013-06-23 14:18:00,80.9,68.9,29.72,SSW,194,11.0,18.0,67,0.00,,CLR,0.00,919.00,VWS V14.01,2013-06-23 19:18:00,
2013-06-23 14:23:00,81.0,69.4,29.72,South,171,1.0,18.0,68,0.00,,CLR,0.00,891.00,VWS V14.01,2013-06-23 19:23:00,
2013-06-23 14:28:00,81.3,68.4,29.71,SSW,193,11.0,18.0,65,0.00,,CLR,0.00,849.00,VWS V14.01,2013-06-23 19:28:00,
2013-06-23 14:33:00,81.0,68.1,29.72,SW,225,15.0,21.0,65,0.00,,CLR,0.00,930.00,VWS V14.01,2013-06-23 19:33:00,
2013-06-23 14:38:00,81.2,68.3,29.72,SSW,196,9.0,21.0,65,0.00,,CLR,0.00,898.00,VWS V14.01,2013-06-23 19:38:00,
2013-06-23 14:43:00,81.3,68.4,29.72,SW,229,12.0,21.0,65,0.00,,CLR,0.00,879.00,VWS V14.01,2013-06-23 19:43:00,
2013-06-23 14:48:00,81.4,67.6,29.72,SSE,149,10.0,21.0,63,0.00,,CLR,0.00,870.00,VWS V14.01,2013-06-23 19:48:00,
2013-06-23 14:53:00,81.2,68.3,29.72,South,178,11.0,21.0,65,0.00,,CLR,0.00,902.00,VWS V14.01,2013-06-23 19:53:00,
2013-06-23 14:58:00,81.2,67.4,29.72,SE,136,10.0,21.0,63,0.00,,CLR,0.00,888.00,VWS V14.01,2013-06-23 19:58:00,
2013-06-23 15:03:00,81.3,68.0,29.72,SSW,208,7.0,17.0,64,0.00,,CLR,0.00,914.00,VWS V14.01,2013-06-23 20:03:00,
2013-06-23 15:08:00,81.5,69.5,29.72,SSW,200,7.0,17.0,67,0.00,,CLR,0.00,928.00,VWS V14.01,2013-06-23 20:08:00,
2013-06-23 15:13:00,81.7,68.8,29.71,SW,225,11.0,17.0,65,0.00,,CLR,0.00,932.00,VWS V14.01,2013-06-23 20:13:00,
2013-06-23 15:18:00,81.4,68.1,29.71,SSW,200,10.0,17.0,64,0.00,,CLR,0.00,932.00,VWS V14.01,2013-06-23 20:18:00,
2013-06-23 15:23:00,81.5,69.1,29.71,SSW,192,12.0,17.0,66,0.00,,CLR,0.00,895.00,VWS V14.01,2013-06-23 20:23:00,
2013-06-23 15:28:00,81.7,68.8,29.71,South,191,13.0,17.0,65,0.00,,CLR,0.00,870.00,VWS V14.01,2013-06-23 20:28:00,
2013-06-23 15:33:00,81.6,67.3,29.71,SSW,209,12.0,15.0,62,0.00,,CLR,0.00,844.00,VWS V14.01,2013-06-23 20:33:00,
2013-06-23 15:38:00,81.9,68.1,29.71,SW,225,9.0,15.0,63,0.00,,CLR,0.00,831.00,VWS V14.01,2013-06-23 20:38:00,
2013-06-23 15:43:00,82.0,68.6,29.71,SW,216,9.0,15.0,64,0.00,,CLR,0.00,882.00,VWS V14.01,2013-06-23 20:43:00,
2013-06-23 15:48:00,81.8,68.0,29.72,SW,221,12.0,21.0,63,0.00,,CLR,0.00,791.00,VWS V14.01,2013-06-23 20:48:00,
2013-06-23 15:53:00,81.7,67.9,29.72,South,188,10.0,21.0,63,0.00,,CLR,0.00,664.00,VWS V14.01,2013-06-23 20:53:00,
2013-06-23 15:58:00,81.7,66.9,29.72,SW,223,17.0,21.0,61,0.00,,CLR,0.00,814.00,VWS V14.01,2013-06-23 20:58:00,
2013-06-23 16:03:00,81.7,67.9,29.72,WSW,253,6.0,14.0,63,0.00,,CLR,0.00,650.00,VWS V14.01,2013-06-23 21:03:00,
2013-06-23 16:08:00,81.1,67.3,29.72,SW,229,8.0,16.0,63,0.00,,CLR,0.00,399.00,VWS V14.01,2013-06-23 21:08:00,
2013-06-23 16:13:00,80.8,67.0,29.72,SSW,213,10.0,16.0,63,0.00,,CLR,0.00,814.00,VWS V14.01,2013-06-23 21:13:00,
2013-06-23 16:18:00,81.2,69.2,29.72,SW,221,10.0,16.0,67,0.00,,CLR,0.00,752.00,VWS V14.01,2013-06-23 21:18:00,
2013-06-23 16:23:00,80.9,67.6,29.72,SSW,205,10.0,16.0,64,0.00,,CLR,0.00,338.00,VWS V14.01,2013-06-23 21:23:00,
2013-06-23 16:28:00,80.1,68.6,29.72,WSW,244,7.0,16.0,68,0.00,,CLR,0.00,640.00,VWS V14.01,2013-06-23 21:28:00,
2013-06-23 16:33:00,80.4,68.0,29.72,SW,232,7.0,14.0,66,0.00,,CLR,0.00,758.00,VWS V14.01,2013-06-23 21:33:00,
2013-06-23 16:38:00,80.6,68.2,29.72,SW,223,10.0,16.0,66,0.00,,CLR,0.00,715.00,VWS V14.01,2013-06-23 21:38:00,
2013-06-23 16:43:00,80.3,67.0,29.72,SW,234,10.0,16.0,64,0.00,,CLR,0.00,176.00,VWS V14.01,2013-06-23 21:43:00,
2013-06-23 16:49:00,80.0,67.6,29.72,SSW,212,7.0,16.0,66,0.00,,CLR,0.00,642.00,VWS V14.01,2013-06-23 21:49:00,
2013-06-23 16:53:00,80.3,68.3,29.72,SSW,206,10.0,16.0,67,0.00,,CLR,0.00,680.00,VWS V14.01,2013-06-23 21:53:00,
2013-06-23 16:58:00,80.6,68.2,29.72,WSW,238,9.0,16.0,66,0.00,,CLR,0.00,638.00,VWS V14.01,2013-06-23 21:58:00,
2013-06-23 17:03:00,80.9,68.5,29.72,SSW,202,4.0,9.0,66,0.00,,CLR,0.00,628.00,VWS V14.01,2013-06-23 22:03:00,
2013-06-23 17:09:00,80.9,68.0,29.72,SSW,196,9.0,11.0,65,0.00,,CLR,0.00,608.00,VWS V14.01,2013-06-23 22:09:00,
2013-06-23 17:14:00,81.0,67.7,29.72,SSW,196,9.0,11.0,64,0.00,,CLR,0.00,585.00,VWS V14.01,2013-06-23 22:14:00,
2013-06-23 17:19:00,81.0,68.1,29.73,SSW,198,7.0,13.0,65,0.00,,CLR,0.00,564.00,VWS V14.01,2013-06-23 22:19:00,
2013-06-23 17:24:00,80.6,68.6,29.72,WSW,237,7.0,14.0,67,0.00,,CLR,0.00,557.00,VWS V14.01,2013-06-23 22:24:00,
2013-06-23 17:29:00,80.3,68.8,29.73,SSE,151,2.0,15.0,68,0.00,,CLR,0.00,548.00,VWS V14.01,2013-06-23 22:29:00,
2013-06-23 17:34:00,80.2,68.3,29.73,SSW,194,7.0,15.0,67,0.00,,CLR,0.00,529.00,VWS V14.01,2013-06-23 22:34:00,
2013-06-23 17:39:00,80.2,68.7,29.73,SW,215,5.0,15.0,68,0.00,,CLR,0.00,506.00,VWS V14.01,2013-06-23 22:39:00,
2013-06-23 17:44:00,80.3,68.3,29.72,SSW,213,9.0,15.0,67,0.00,,CLR,0.00,489.00,VWS V14.01,2013-06-23 22:44:00,
2013-06-23 17:49:00,80.3,68.3,29.72,SSW,207,12.0,15.0,67,0.00,,CLR,0.00,487.00,VWS V14.01,2013-06-23 22:49:00,
2013-06-23 17:54:00,80.1,68.2,29.72,SW,219,8.0,15.0,67,0.00,,CLR,0.00,468.00,VWS V14.01,2013-06-23 22:54:00,
2013-06-23 17:59:00,80.1,69.0,29.72,SSW,193,7.0,15.0,69,0.00,,CLR,0.00,457.00,VWS V14.01,2013-06-23 22:59:00,
2013-06-23 18:04:00,80.1,69.0,29.73,SSW,198,9.0,13.0,69,0.00,,CLR,0.00,446.00,VWS V14.01,2013-06-23 23:04:00,
2013-06-23 18:09:00,80.0,68.5,29.73,SW,223,9.0,14.0,68,0.00,,CLR,0.00,431.00,VWS V14.01,2013-06-23 23:09:00,
2013-06-23 18:14:00,79.8,68.7,29.73,SSW,194,8.0,15.0,69,0.00,,CLR,0.00,417.00,VWS V14.01,2013-06-23 23:14:00,
2013-06-23 18:19:00,79.9,68.8,29.73,SW,219,6.0,15.0,69,0.00,,CLR,0.00,388.00,VWS V14.01,2013-06-23 23:19:00,
2013-06-23 18:24:00,79.9,69.2,29.73,WSW,238,6.0,15.0,70,0.00,,CLR,0.00,385.00,VWS V14.01,2013-06-23 23:24:00,
2013-06-23 18:29:00,80.1,69.0,29.73,South,176,4.0,15.0,69,0.00,,CLR,0.00,367.00,VWS V14.01,2013-06-23 23:29:00,
2013-06-23 18:34:00,79.9,69.2,29.73,SSW,208,5.0,12.0,70,0.00,,CLR,0.00,355.00,VWS V14.01,2013-06-23 23:34:00,
2013-06-23 18:39:00,79.8,69.2,29.73,SSW,205,10.0,12.0,70,0.00,,CLR,0.00,345.00,VWS V14.01,2013-06-23 23:39:00,
2013-06-23 18:44:00,79.7,69.5,29.74,SSW,200,3.0,12.0,71,0.00,,CLR,0.00,332.00,VWS V14.01,2013-06-23 23:44:00,
2013-06-23 18:49:00,79.7,69.9,29.74,WSW,246,5.0,12.0,72,0.00,,CLR,0.00,311.00,VWS V14.01,2013-06-23 23:49:00,
2013-06-23 18:54:00,79.5,69.3,29.74,SW,225,5.0,13.0,71,0.00,,CLR,0.00,311.00,VWS V14.01,2013-06-23 23:54:00,
2013-06-23 18:59:00,79.4,69.2,29.74,SW,216,6.0,13.0,71,0.00,,CLR,0.00,285.00,VWS V14.01,2013-06-23 23:59:00,
2013-06-23 19:04:00,79.3,69.5,29.74,SSW,200,6.0,11.0,72,0.00,,CLR,0.00,269.00,VWS V14.01,2013-06-24 00:04:00,
2013-06-23 19:09:00,79.3,69.5,29.74,SSW,212,6.0,12.0,72,0.00,,CLR,0.00,258.00,VWS V14.01,2013-06-24 00:09:00,
2013-06-23 19:14:00,79.2,69.4,29.74,SSW,192,9.0,12.0,72,0.00,,CLR,0.00,160.00,VWS V14.01,2013-06-24 00:14:00,
2013-06-23 19:19:00,79.0,69.2,29.74,SSW,197,4.0,12.0,72,0.00,,CLR,0.00,243.00,VWS V14.01,2013-06-24 00:19:00,
2013-06-23 19:24:00,79.0,69.6,29.75,SSW,204,7.0,12.0,73,0.00,,CLR,0.00,181.00,VWS V14.01,2013-06-24 00:24:00,
2013-06-23 19:29:00,78.7,69.3,29.75,SSW,211,6.0,6.0,73,0.00,,CLR,0.00,47.00,VWS V14.01,2013-06-24 00:29:00,
2013-06-23 19:34:00,78.1,69.1,29.75,SSW,205,4.0,8.0,74,0.00,,CLR,0.00,33.00,VWS V14.01,2013-06-24 00:34:00,
2013-06-23 19:39:00,77.7,68.8,29.75,SW,225,5.0,9.0,74,0.00,,CLR,0.00,44.00,VWS V14.01,2013-06-24 00:39:00,
2013-06-23 19:44:00,77.6,69.1,29.75,SSW,211,3.0,9.0,75,0.00,,CLR,0.00,100.00,VWS V14.01,2013-06-24 00:44:00,
2013-06-23 19:49:00,77.5,69.0,29.75,SSW,206,4.0,9.0,75,0.00,,CLR,0.00,65.00,VWS V14.01,2013-06-24 00:49:00,
2013-06-23 19:54:00,77.3,69.2,29.75,SSW,211,2.0,9.0,76,0.00,,CLR,0.00,104.00,VWS V14.01,2013-06-24 00:54:00,
2013-06-23 19:59:00,77.2,69.1,29.75,SSW,192,3.0,3.0,76,0.00,,CLR,0.00,95.00,VWS V14.01,2013-06-24 00:59:00,
2013-06-23 20:04:00,77.2,69.4,29.75,SSW,202,0.0,5.0,77,0.00,,FEW038,0.00,113.00,VWS V14.01,2013-06-24 01:04:00,
2013-06-23 20:09:00,77.1,69.3,29.75,SSW,192,5.0,5.0,77,0.00,,FEW038,0.00,90.00,VWS V14.01,2013-06-24 01:09:00,
2013-06-23 20:14:00,77.1,69.3,29.76,SSW,198,1.0,6.0,77,0.00,,FEW038,0.00,79.00,VWS V14.01,2013-06-24 01:14:00,
2013-06-23 20:19:00,77.1,69.3,29.76,South,186,0.0,6.0,77,0.00,,FEW038,0.00,90.00,VWS V14.01,2013-06-24 01:19:00,
2013-06-23 20:24:00,77.0,69.2,29.76,South,187,1.0,6.0,77,0.00,,FEW038,0.00,60.00,VWS V14.01,2013-06-24 01:24:00,
2013-06-23 20:29:00,76.9,69.2,29.76,SSW,213,2.0,4.0,77,0.00,,FEW038,0.00,51.00,VWS V14.01,2013-06-24 01:29:00,
2013-06-23 20:34:00,76.7,68.9,29.76,South,178,2.0,5.0,77,0.00,,FEW038,0.00,32.00,VWS V14.01,2013-06-24 01:34:00,
2013-06-23 20:39:00,76.5,69.1,29.76,South,178,0.0,5.0,78,0.00,,FEW038,0.00,28.00,VWS V14.01,2013-06-24 01:39:00,
2013-06-23 20:44:00,76.3,68.9,29.76,SSW,197,0.0,5.0,78,0.00,,FEW038,0.00,21.00,VWS V14.01,2013-06-24 01:44:00,
2013-06-23 20:49:00,76.0,68.7,29.77,South,190,0.0,5.0,78,0.00,,FEW038,0.00,11.00,VWS V14.01,2013-06-24 01:49:00,
2013-06-23 20:54:00,75.7,68.7,29.77,South,187,0.0,5.0,79,0.00,,FEW038,0.00,7.00,VWS V14.01,2013-06-24 01:54:00,
2013-06-23 20:59:00,75.5,68.5,29.77,South,187,0.0,1.0,79,0.00,,CLR,0.00,11.00,VWS V14.01,2013-06-24 01:59:00,
2013-06-23 21:04:00,75.3,68.3,29.77,South,187,0.0,2.0,79,0.00,,CLR,0.00,11.00,VWS V14.01,2013-06-24 02:04:00,
2013-06-23 21:09:00,75.1,68.2,29.77,South,187,0.0,2.0,79,0.00,,CLR,0.00,5.00,VWS V14.01,2013-06-24 02:09:00,
2013-06-23 21:14:00,74.8,68.2,29.77,South,187,0.0,2.0,80,0.00,,CLR,0.00,0.00,VWS V14.01,2013-06-24 02:14:00,
2013-06-23 21:19:00,74.7,68.1,29.77,South,187,0.0,2.0,80,0.00,,CLR,0.00,0.00,VWS V14.01,2013-06-24 02:19:00,
2013-06-23 21:25:00,74.5,67.9,29.78,South,187,0.0,2.0,80,0.00,,CLR,0.00,0.00,VWS V14.01,2013-06-24 02:25:00,
2013-06-23 21:30:00,74.4,68.2,29.78,South,187,0.0,0.0,81,0.00,,CLR,0.00,0.00,VWS V14.01,2013-06-24 02:30:00,
2013-06-23 21:35:00,74.1,67.9,29.78,South,187,0.0,1.0,81,0.00,,CLR,0.00,0.00,VWS V14.01,2013-06-24 02:35:00,
2013-06-23 21:40:00,73.9,67.7,29.78,South,187,0.0,1.0,81,0.00,,CLR,0.00,0.00,VWS V14.01,2013-06-24 02:40:00,
2013-06-23 21:45:00,73.7,67.9,29.78,South,187,0.0,1.0,82,0.00,,CLR,0.00,0.00,VWS V14.01,2013-06-24 02:45:00,
2013-06-23 21:50:00,73.5,67.7,29.78,South,187,0.0,1.0,82,0.00,,CLR,0.00,0.00,VWS V14.01,2013-06-24 02:50:00,
2013-06-23 21:55:00,73.3,67.5,29.78,South,187,0.0,1.0,82,0.00,,CLR,0.00,0.00,VWS V14.01,2013-06-24 02:55:00,
2013-06-23 22:00:00,73.1,67.3,29.78,South,187,0.0,0.0,82,0.00,,CLR,0.00,0.00,VWS V14.01,2013-06-24 03:00:00,
2013-06-23 22:05:00,73.0,67.5,29.78,South,187,0.0,0.0,83,0.00,,CLR,0.00,0.00,VWS V14.01,2013-06-24 03:05:00,
2013-06-23 22:10:00,72.8,67.3,29.78,South,187,0.0,0.0,83,0.00,,CLR,0.00,0.00,VWS V14.01,2013-06-24 03:10:00,
2013-06-23 22:15:00,72.7,67.2,29.79,South,187,0.0,0.0,83,0.00,,CLR,0.00,0.00,VWS V14.01,2013-06-24 03:15:00,
2013-06-23 22:20:00,72.6,67.2,29.79,South,187,0.0,0.0,83,0.00,,CLR,0.00,0.00,VWS V14.01,2013-06-24 03:20:00,
2013-06-23 22:25:00,72.6,67.2,29.79,South,187,0.0,0.0,83,0.00,,CLR,0.00,0.00,VWS V14.01,2013-06-24 03:25:00,
2013-06-23 22:30:00,72.5,67.1,29.79,South,187,0.0,0.0,83,0.00,,CLR,0.00,0.00,VWS V14.01,2013-06-24 03:30:00,
2013-06-23 22:35:00,72.4,66.9,29.79,South,187,0.0,0.0,83,0.00,,CLR,0.00,0.00,VWS V14.01,2013-06-24 03:35:00,
2013-06-23 22:40:00,72.3,67.2,29.79,South,187,0.0,0.0,84,0.00,,CLR,0.00,0.00,VWS V14.01,2013-06-24 03:40:00,
2013-06-23 22:45:00,72.2,67.1,29.79,South,187,0.0,1.0,84,0.00,,CLR,0.00,0.00,VWS V14.01,2013-06-24 03:45:00,
2013-06-23 22:50:00,72.1,67.0,29.79,South,187,0.0,2.0,84,0.00,,CLR,0.00,0.00,VWS V14.01,2013-06-24 03:50:00,
2013-06-23 22:55:00,71.9,66.8,29.80,South,187,0.0,2.0,84,0.00,,CLR,0.00,0.00,VWS V14.01,2013-06-24 03:55:00,
2013-06-23 23:00:00,71.8,67.1,29.80,South,187,2.0,4.0,85,0.00,,CLR,0.00,0.00,VWS V14.01,2013-06-24 04:00:00,
2013-06-23 23:01:00,71.8,67.1,29.80,South,188,0.0,4.0,85,0.00,,CLR,0.00,0.00,VWS V14.01,2013-06-24 04:01:00,
2013-06-23 23:06:00,71.7,66.9,29.80,South,187,3.0,4.0,85,0.00,,CLR,0.00,0.00,VWS V14.01,2013-06-24 04:06:00,
2013-06-23 23:11:00,71.7,66.9,29.80,South,187,1.0,4.0,85,0.00,,CLR,0.00,0.00,VWS V14.01,2013-06-24 04:11:00,
2013-06-23 23:16:00,71.6,66.9,29.80,South,187,0.0,4.0,85,0.00,,CLR,0.00,0.00,VWS V14.01,2013-06-24 04:16:00,
2013-06-23 23:21:00,71.5,66.8,29.80,South,187,0.0,4.0,85,0.00,,CLR,0.00,0.00,VWS V14.01,2013-06-24 04:21:00,
2013-06-23 23:26:00,71.5,66.8,29.80,SSW,200,0.0,6.0,85,0.00,,CLR,0.00,0.00,VWS V14.01,2013-06-24 04:26:00,
2013-06-23 23:31:00,71.4,66.7,29.80,South,182,0.0,1.0,85,0.00,,CLR,0.00,0.00,VWS V14.01,2013-06-24 04:31:00,
2013-06-23 23:36:00,71.4,66.7,29.80,SSW,198,0.0,3.0,85,0.00,,CLR,0.00,0.00,VWS V14.01,2013-06-24 04:36:00,
2013-06-23 23:42:00,71.3,66.9,29.81,SSW,198,0.0,3.0,86,0.00,,CLR,0.00,0.00,VWS V14.01,2013-06-24 04:42:00,
2013-06-23 23:46:00,71.2,66.8,29.81,SSW,198,0.0,3.0,86,0.00,,CLR,0.00,0.00,VWS V14.01,2013-06-24 04:46:00,
2013-06-23 23:52:00,71.1,66.7,29.81,SSW,198,0.0,3.0,86,0.00,,CLR,0.00,0.00,VWS V14.01,2013-06-24 04:52:00,
2013-06-23 23:57:00,71.0,66.6,29.81,SSW,197,0.0,3.0,86,0.00,,CLR,0.00,0.00,VWS V14.01,2013-06-24 04:57:00,